Location: ?????????
(48.5008°N, 37.9680°E)
Time: 16:55:51
(UTC+00:00)

Daily predictions for brighter satellites

Satellite Brightness Start Highest point End
(mag) Time Altitude Azimuth Time Altitude Azimuth Time Altitude Azimuth
Meteor 2-3 Rocket 3.8 17:26:55 10° S 17:32:31 63° E 17:38:14 10° NNE
Cosmos 2082 Rocket 4.0 17:28:19 10° WSW 17:33:34 38° NW 17:38:52 10° NNE
Cosmos 2360 Rocket 2.5 17:29:24 10° NNW 17:34:58 56° ENE 17:40:30 10° SE
NOSS 2-1 (D) 3.2 17:34:23 10° SSW 17:37:31 41° SE 17:40:42 10° NE
Ariane Rocket 3.0 17:33:20 10° SSE 17:38:24 84° ENE 17:43:29 10° NNW
Cosmos 2098 Rocket 3.7 17:36:15 10° SSW 17:39:47 55° WNW 17:44:14 10° N
Cosmos 220 Rocket 4.1 17:35:28 10° NNW 17:39:51 74° ENE 17:44:14 10° SSE
Terra 3.8 17:38:15 10° E 17:40:47 14° NE 17:43:19 10° NNE
SAR-Lupe-1 4.1 17:37:42 10° NNE 17:41:19 89° W 17:44:54 10° SSW
Meteor 2-19 Rocket 4.4 17:36:08 10° S 17:42:10 81° E 17:48:16 10° NNE
Cosmos 1328 Rocket 4.2 17:38:57 10° N 17:43:07 38° ENE 17:47:14 10° SE
SAR-Lupe-4 3.5 17:39:58 10° NNE 17:43:34 85° ESE 17:47:09 10° SSW
Cosmos 1174 3.7 17:41:07 10° NNW 17:44:02 44° NE 17:46:56 10° ESE
SPOT 3 Rocket 3.8 17:39:36 10° SE 17:44:40 55° ENE 17:49:46 10° N
Helios 1A Rocket 4.0 17:41:14 10° S 17:45:09 45° W 17:49:07 10° NNW
Cosmos 1553 Rocket 4.4 17:41:16 10° N 17:47:04 44° ENE 17:52:54 10° SE
Cosmos 1624 Rocket 4.1 17:43:22 10° NNW 17:48:35 68° ENE 17:53:47 10° SSE
Cosmos 1766 Rocket 4.0 17:45:08 10° SSE 17:49:16 43° E 17:53:24 10° NNE
BREEZE M DEB (TANK) 4.3 17:48:34 10° SSW 17:51:50 30° SE 18:03:33 10° ENE
Cosmos 2151 3.5 17:47:42 10° SSW 17:51:56 65° WNW 17:56:13 10° N
Cosmos 1420 Rocket 4.4 17:48:27 10° NNW 17:53:40 52° ENE 17:58:36 11° SE
Cosmos 2084 3.4 17:50:35 10° SW 17:54:39 83° NW 17:58:51 10° NE
Resurs 01 Rocket 1.6 17:51:11 10° SSE 17:55:37 82° ENE 18:00:06 10° NNW
ERS-1 Rocket 4.0 18:00:14 12° ESE 18:04:14 30° ENE 18:08:35 10° N
Landsat 7 3.8 18:00:01 10° SSE 18:04:46 89° NE 18:09:34 10° NNW
Cosmos 1933 4.4 18:01:09 10° NNW 18:05:01 45° W 18:08:50 10° SSW
Cosmos 1812 2.9 18:01:48 10° N 18:05:37 54° ENE 18:08:59 13° SSE
Cosmos 1833 4.4 18:00:33 10° S 18:06:05 50° ESE 18:11:40 10° NE
Cosmos 1782 3.0 18:03:14 10° NNW 18:07:15 72° W 18:11:13 10° S
Cosmos 1862 3.8 18:05:07 10° SSE 18:08:50 40° E 18:12:34 10° NNE
USA 234 4.4 18:03:19 10° ENE 18:09:26 44° N 18:15:34 10° WNW
Cosmos 2333 Rocket 2.6 18:04:21 10° NNW 18:09:54 53° NE 18:14:32 15° SE
Cosmos 2237 Rocket 4.0 18:07:46 10° N 18:11:55 20° NE 18:16:03 10° E
Cosmos 2322 Rocket 2.9 18:06:36 10° NW 18:12:03 52° WSW 18:17:27 10° S
Cosmos 2322 4.1 18:07:25 10° NNW 18:13:02 53° NE 18:17:37 15° SE
SL-27 R/B 2.4 18:11:59 10° SSW 18:15:34 74° ESE 18:19:10 10° NNE
SPOT 5 3.6 18:13:30 15° ESE 18:16:33 34° ENE 18:20:39 10° N
ARIANE 5 R/B 3.2 18:16:46 16° SE 18:19:57 43° ENE 18:24:08 10° N
Cosmos 1452 Rocket 4.1 18:14:58 10° NNW 18:20:03 45° ENE 18:23:50 17° SE
S3M 4.3 18:15:21 10° N 18:21:38 55° ENE 18:26:49 15° SSE
Cosmos 2219 Rocket 2.5 18:18:52 10° NNW 18:24:23 55° ENE 18:28:28 18° SE
Cosmos 1500 Rocket 4.4 18:26:02 19° SE 18:28:28 32° E 18:32:25 10° NNE
Cosmos 2056 Rocket 4.0 18:25:06 10° NNW 18:30:21 58° WSW 18:35:08 12° S
ATLAS 5 CENTAUR R/B 2.6 18:25:32 10° NW 18:30:50 58° NE 18:35:38 17° ESE
Meteor 1-27 Rocket 4.2 18:27:11 10° N 18:32:42 48° ENE 18:36:33 20° SE
Meteor 2-14 Rocket 4.4 18:27:04 10° S 18:33:12 77° E 18:39:21 10° NNE
NOSS 2-1 (E) 3.6 18:32:34 10° SW 18:35:46 56° NW 18:39:14 10° NE
Spot 2 Rocket 3.5 18:33:52 17° SSE 18:37:47 78° ENE 18:42:55 10° NNW
SPOT 1/Viking Rocket 3.8 18:33:49 12° S 18:38:39 71° WSW 18:43:54 10° NNW
Cosmos 1655 Rocket 4.2 18:34:14 13° SSE 18:39:48 56° E 18:46:03 10° NNE
USA 245 3.4 18:39:41 17° S 18:42:55 72° WSW 18:46:24 10° NNW
Cosmos 1408 Rocket 3.4 18:39:58 12° S 18:43:54 79° E 18:48:13 10° NNE
SL-16 R/B 4.4 18:40:39 10° N 18:43:55 15° NE 18:47:11 10° ENE
SL-16 R/B 4.2 18:40:47 10° NW 18:45:08 23° WSW 18:49:28 10° SSW
NOSS 3-1 (C) 4.2 18:39:39 10° NW 18:47:04 73° SW 18:53:31 20° SSE
CZ-2C R/B 3.6 18:42:53 10° NNE 18:47:24 87° WNW 18:51:50 10° SSW
Cosmos 1743 Rocket 3.8 18:48:33 24° SSE 18:50:57 51° E 18:55:15 10° NNE
GP-B 3.9 18:47:01 10° N 18:51:20 50° W 18:55:36 10° SSW
CARTOSAT-1 3.7 18:52:01 21° S 18:54:52 73° WSW 18:59:12 10° NNW
Cosmos 2333 4.4 18:50:40 10° NNW 18:56:14 66° WSW 18:59:54 22° S
Lacrosse 5 2.6 18:54:47 23° SSE 18:56:39 30° SE 19:01:03 10° ENE
Meteor 1-10 Rocket 4.4 18:54:39 10° NNW 19:00:11 70° W 19:04:17 18° S
CZ-4C R/B 4.3 18:56:06 10° NW 19:01:49 30° NNE 19:08:28 10° E
BREEZE-M DEB (TANK) 4.1 18:57:49 10° WSW 19:02:22 89° N 19:22:22 10° E
USA 229 DEB 3.9 18:57:57 10° NW 19:05:17 84° SW 19:10:11 25° SE
USA 229 3.9 18:58:03 10° NW 19:05:23 84° SW 19:10:16 25° SE
COSMOS 2428 2.7 19:03:04 10° NNW 19:08:48 88° WSW 19:11:51 29° SSE
COSMOS 2455 2.8 19:04:44 10° SSW 19:10:46 90° NE 19:16:50 10° NE
Cosmos 1515 Rocket 4.3 19:07:31 10° NNW 19:11:47 48° W 19:14:36 20° SSW
COSMOS 2487 2.5 19:12:29 24° SSW 19:14:22 74° WNW 19:17:45 10° NNE
IRIDIUM 103 4.5 19:09:17 10° N 19:14:27 59° E 19:16:43 32° SSE
Terra 1.8 19:15:37 32° SSE 19:17:50 90° ENE 19:22:38 10° NNW
CZ-4B DEB 4.2 19:17:43 57° ESE 19:18:00 61° ENE 19:21:08 10° N
Cosmos 2360 Rocket 3.8 19:13:58 10° NW 19:18:37 27° WSW 19:22:50 12° SSW
Cosmos 972 Rocket 3.9 19:18:18 16° SSW 19:22:25 89° ESE 19:27:22 10° NNE
Cosmos 1048 Rocket 3.8 19:19:38 21° SSW 19:23:05 78° ESE 19:28:13 10° NNE
Cosmos 2084 Rocket 3.4 19:20:25 10° NW 19:24:36 85° NE 19:25:56 44° SE
Cosmos 2219 4.5 19:24:31 23° ESE 19:24:46 23° E 19:29:08 10° NE
NOSS 3-1 (A) 4.2 19:18:25 10° NW 19:25:51 69° SW 19:30:51 28° SSE
Cosmos 489 Rocket 4.5 19:22:00 21° S 19:26:24 69° ESE 19:32:44 10° NNE
Cosmos 2266 Rocket 4.1 19:25:10 16° SSW 19:30:14 74° W 19:36:34 10° N
Resurs 01 Rocket 4.3 19:30:51 10° WSW 19:32:43 12° W 19:34:34 10° WNW
IRIDIUM 106 4.2 19:27:29 10° N 19:32:45 83° E 19:34:55 37° S
TSX-5 4.4 19:33:19 41° ESE 19:33:19 41° ESE 19:37:52 10° NE
Meteor 1-19 Rocket 4.4 19:28:43 10° N 19:34:11 56° ENE 19:36:09 37° SE
Cosmos 1980 3.9 19:29:46 10° NNW 19:35:25 63° ENE 19:37:45 35° SE
Cosmos 1707 Rocket 3.7 19:34:16 10° N 19:38:37 61° ENE 19:39:32 48° SE
H-2A R/B 3.4 19:35:38 10° NNE 19:39:50 66° ESE 19:40:37 53° SSE
Okean 1 3.5 19:37:18 10° N 19:41:15 54° ENE 19:41:42 51° ESE
ERS-1 Rocket 3.9 19:40:14 23° SSW 19:42:53 41° W 19:47:39 10° NNW
Cosmos 2285 Rocket 4.4 19:38:59 10° NNW 19:45:06 55° WSW 19:48:12 29° S
Cosmos 2228 Rocket 3.7 19:43:33 10° NNW 19:47:51 51° W 19:49:24 34° SSW
Cosmos 1500 3.9 19:49:35 41° E 19:49:35 41° E 19:52:57 10° NNE
Cosmos 2315 Rocket 4.3 19:43:08 10° NNW 19:49:25 66° W 19:52:46 29° SSW
Cosmos 2297 Rocket 2.6 19:49:40 39° SE 19:50:30 42° ESE 19:55:49 10° NE
Cosmos 972 4.4 19:48:58 34° SSW 19:51:20 84° ESE 19:56:23 10° NNE
NOSS 0 Rocket 3.9 19:45:13 10° NNW 19:51:28 75° WSW 19:53:53 39° SSE
USA 234 4.1 19:45:31 10° E 19:51:45 48° NNE 19:58:00 10° WNW
Cosmos 2333 Rocket 3.6 19:49:06 10° NW 19:53:53 29° WSW 19:56:33 20° SW
SPOT 5 4.2 19:52:44 20° SW 19:54:42 28° W 19:58:37 10° NW
Cosmos 1805 Rocket 4.0 19:54:29 34° SW 19:56:12 60° WNW 20:00:34 10° N
Cosmos 2237 Rocket 2.1 19:51:09 10° NNW 19:56:53 83° ENE 19:58:46 44° SE
NOSS 2-2 (E) 4.4 19:53:44 10° NW 19:59:04 84° SW 20:01:52 39° SSE
Meteor 1-20 Rocket 4.3 19:58:16 33° SSW 20:00:56 80° WNW 20:06:44 10° N
Cosmos 2227 Rocket 2.7 20:03:03 39° ESE 20:03:29 40° ESE 20:08:44 10° NE
BREEZE-M R/B 3.6 20:00:48 10° WSW 20:06:12 29° E 20:08:38 10° ENE
Cosmos 1745 Rocket 4.5 20:05:56 38° SE 20:07:35 46° E 20:13:34 10° NNE
Cosmos 2219 Rocket 3.6 20:03:23 10° NW 20:07:59 27° WSW 20:10:11 21° SW
ALOS 2 3.5 20:08:21 33° E 20:09:01 35° ENE 20:13:01 10° N
Meteor 1-14 Rocket 4.4 20:09:06 46° SE 20:10:18 55° E 20:15:52 10° NNE
ATLAS 5 CENTAUR R/B 3.3 20:10:19 10° NW 20:15:27 35° WSW 20:17:08 30° SSW
Sich 1 3.9 20:16:31 34° WSW 20:17:53 45° WNW 20:22:03 10° N
Nadezhda 1 Rocket 4.1 20:13:39 10° N 20:20:03 67° ENE 20:22:03 44° SE
NOSS 2-2 (C) 4.4 20:19:47 10° NW 20:25:04 70° SW 20:27:03 46° SSE
SL-16 R/B 2.5 20:23:44 10° NNW 20:29:20 57° ENE 20:31:05 41° ESE
Cosmos 44 4.3 20:27:34 10° NNW 20:32:38 43° NE 20:34:40 29° E
Cosmos 1633 Rocket 3.2 20:33:47 58° WSW 20:34:17 64° WNW 20:38:37 10° N
Cosmos 1470 Rocket 3.4 20:37:00 81° E 20:37:00 81° E 20:41:19 10° NNE
Timation 1 Rocket 4.4 20:38:21 53° SSE 20:39:18 60° ESE 20:45:13 10° NE
Lacrosse 5 2.1 20:34:16 10° WSW 20:39:20 70° NNW 20:44:25 10° NE
Cosmos 1666 3.0 20:41:01 65° NNE 20:41:01 65° NNE 20:44:21 10° N
Cosmos 1933 Rocket 3.7 20:43:07 61° E 20:43:07 61° E 20:47:24 10° NNE
Cosmos 1666 Rocket 4.5 20:44:01 36° WSW 20:45:00 42° WNW 20:49:16 10° N
CZ-4C R/B 3.1 20:44:29 10° NW 20:51:32 71° NE 20:56:03 29° ESE
Cosmos 1340 Rocket 3.1 20:53:05 63° NNE 20:53:05 63° NNE 20:56:29 10° NNE
Cosmos 2251 Rocket 4.2 20:54:15 40° ESE 20:54:15 40° ESE 20:59:11 10° NE
Timation 2 Rocket 3.8 20:54:30 56° S 20:55:44 72° ESE 21:01:55 10° NNE
Terra 4.2 20:54:30 10° WSW 20:56:17 12° W 20:58:11 10° WNW
Meteor 2-4 Rocket 4.1 20:51:36 10° NNW 20:57:24 58° W 20:58:42 47° SW
USA 267 3.3 20:53:13 10° ENE 20:59:39 56° SE 21:00:52 49° S
Cosmos 1992 Rocket 3.8 20:57:22 10° NNW 21:02:37 78° WSW 21:03:08 70° SSW
ATLAS CENTAUR R/B 3.6 21:08:46 15° ENE 21:08:46 15° ENE 21:09:48 10° ENE
Cosmos 2242 Rocket 3.5 21:02:44 10° N 21:07:06 83° WNW 21:07:06 83° WNW
Cosmos 2219 3.4 21:06:25 41° SW 21:08:24 67° WNW 21:14:10 10° NNE
Cosmos 909 Rocket 4.2 21:05:55 42° SSW 21:08:31 86° SE 21:16:32 10° NE
Cosmos 1544 4.2 21:10:00 38° NE 21:10:00 38° NE 21:12:28 10° NNE
Meteor 1-5 Rocket 4.5 21:07:34 48° SW 21:09:10 68° WNW 21:15:06 10° N
Cosmos 1066 Rocket 4.2 21:06:29 10° N 21:12:24 82° ENE 21:13:32 60° SSE
Cosmos 2082 3.6 21:19:21 64° S 21:20:12 79° ESE 21:25:58 10° NNE
Meteor 1-11 Rocket 3.5 21:22:50 67° S 21:23:37 85° E 21:29:11 10° NNE
Cosmos 1703 Rocket 3.9 21:20:08 10° NNW 21:24:11 55° W 21:24:11 55° W
Cosmos 2344 4.3 21:24:41 31° SE 21:25:44 32° ESE 21:32:18 10° NE
Cosmos 2181 Rocket 4.0 21:20:08 10° N 21:26:28 78° E 21:27:58 54° SSE
Cosmos 1378 4.4 21:26:47 10° NNW 21:29:25 35° WNW 21:29:25 35° WNW
Cosmos 1733 Rocket 4.3 21:32:40 31° E 21:32:40 31° E 21:36:28 10° NNE
Okean 1-7 3.7 21:29:01 10° NNW 21:32:43 44° WNW 21:32:43 44° WNW
Nimbus 7 Rocket 4.3 21:27:32 10° NNE 21:33:34 87° WNW 21:34:55 57° SSW
USA 234 3.2 21:30:45 29° ESE 21:34:28 89° NNE 21:41:04 10° NW
Cosmos 2297 Rocket 3.3 21:31:26 21° WSW 21:34:37 38° NW 21:39:55 10° NNE
SL-16 R/B 4.4 21:30:56 10° ESE 21:35:39 24° NE 21:40:23 10° N
Cosmos 1140 Rocket 4.3 21:36:10 37° ESE 21:36:16 37° ESE 21:41:03 10° NE
Meteor 1-23 Rocket 4.2 21:32:30 10° NNW 21:38:18 88° E 21:39:20 62° SSE
Cosmos 2237 Rocket 4.0 21:36:36 10° WNW 21:40:12 17° W 21:40:34 17° WSW
Cosmos 1709 Rocket 4.2 21:41:40 46° SW 21:43:27 64° WNW 21:49:49 10° N
Cosmos 2221 Rocket 3.9 21:39:29 10° N 21:44:01 58° ENE 21:44:13 57° E
Cosmos 614 Rocket 3.8 21:43:51 73° SSW 21:44:23 90° WNW 21:49:39 10° NNE
ALOS 2 4.0 21:45:45 27° W 21:45:45 27° W 21:49:10 10° NW
Cosmos 2227 Rocket 3.2 21:44:49 25° WSW 21:47:34 40° NW 21:52:54 10° NNE
Cosmos 1461 3.2 21:50:59 66° WNW 21:51:11 67° NW 21:55:34 10° NE
SL-24 R/B - RUBIN 2 3.7 21:46:25 10° NW 21:51:32 80° NE 21:51:56 73° ESE
Cosmos 2263 Rocket 2.4 21:51:47 52° SE 21:52:22 55° ESE 21:57:55 10° NE
Intercosmos 25 Rocket 4.3 21:56:20 51° WSW 21:57:06 57° WNW 22:03:53 10° N
Cosmos 1603 3.8 21:52:24 10° NNW 21:58:03 72° ENE 21:59:41 46° SE
BREEZE-M DEB (TANK) 4.2 21:56:20 10° W 22:02:12 42° WSW 22:02:12 42° WSW
PSLV R/B 3.7 21:59:45 10° N 22:04:31 77° WNW 22:04:48 74° WSW
Cosmos 1536 3.9 22:05:02 36° WNW 22:05:02 36° WNW 22:08:37 10° N
Okean 2 4.1 22:02:26 10° N 22:06:28 45° ENE 22:06:40 45° E
ASTEX 1 3.4 22:07:17 64° SE 22:07:52 73° E 22:12:50 10° N
ARGOS Delta rocket 4.0 22:04:37 10° NNE 22:09:03 54° E 22:09:07 54° ESE
Cosmos 1842 3.6 22:05:37 10° N 22:08:58 64° N 22:08:58 64° N
Meteor 2-9 Rocket 4.2 22:08:49 54° SE 22:09:41 62° E 22:15:05 10° NNE
Cosmos 1869 Rocket 4.4 22:09:57 40° W 22:10:08 40° WNW 22:14:22 10° N
Thor Agena Rocket 3.6 22:06:13 10° N 22:11:14 65° WNW 22:12:00 57° WSW
SL-16 R/B 3.4 22:08:27 10° NW 22:12:56 26° W 22:12:56 26° W
Cosmos 44 4.2 22:09:03 10° NW 22:13:03 36° W 22:13:03 36° W
Cosmos 1190 Rocket 4.0 22:16:44 59° SSE 22:17:23 65° ESE 22:22:40 10° NNE
CZ-2D R/B 3.5 22:12:48 10° NE 22:17:28 28° E 22:19:04 24° ESE
MOZ.5/SAFIR/RUBIN 5/SL-8 4.2 22:19:12 48° ESE 22:20:11 59° ENE 22:24:48 10° N
Lacrosse 5 3.5 22:18:22 10° WNW 22:22:59 33° N 22:27:35 10° NE
Cosmos 1023 Rocket 4.4 22:22:18 66° SSW 22:23:04 90° WNW 22:28:20 10° NNE
SL-8 R/B 3.6 22:23:48 58° W 22:24:45 90° N 22:29:35 10° E
Cosmos 1340 4.2 22:22:03 10° N 22:25:22 28° ENE 22:25:59 27° E
Cosmos 2227 4.1 22:24:38 60° S 22:25:41 80° ESE 22:31:20 10° NNE
Cosmos 2184 Rocket 4.0 22:24:02 51° SSW 22:25:45 79° W 22:32:09 10° N
Cosmos 1954 Rocket 4.4 22:24:58 45° SE 22:25:47 49° ESE 22:30:54 10° NNE
Helios 1A 3.2 22:26:48 59° ESE 22:27:11 63° ENE 22:31:20 10° N
Cosmos 1743 4.0 22:28:33 30° WNW 22:28:33 30° WNW 22:31:38 10° N
Cosmos 1238 Rocket 3.1 22:32:36 62° E 22:32:37 62° E 22:37:08 10° NNE
Cosmos 1674 Rocket 3.4 22:29:54 10° NNW 22:34:22 78° W 22:34:28 77° WSW
Cosmos 1818 3.5 22:29:24 10° NW 22:34:56 89° SW 22:36:45 44° SE
Cosmos 2154 Rocket 3.9 22:33:21 49° S 22:35:09 87° E 22:41:27 10° N
Cosmos 2074 Rocket 4.1 22:34:33 46° SW 22:36:17 65° WNW 22:42:29 10° N
Cosmos 1763 Rocket 4.2 22:31:48 10° NNW 22:37:01 53° ENE 22:39:54 25° SE
CZ-4 R/B 4.0 22:32:16 10° NNE 22:37:18 72° ESE 22:38:12 58° SSE
Resurs 1-4 Rocket 2.9 22:34:42 10° NNE 22:39:44 42° E 22:41:15 34° SE
CZ-4C R/B 3.6 22:33:20 10° NW 22:40:00 37° WSW 22:41:11 35° SW
Cosmos 1943 3.3 22:36:16 10° NW 22:41:52 58° WSW 22:42:42 53° SW
USA 267 3.6 22:36:18 10° NE 22:42:45 63° NNW 22:48:10 15° W
ATLAS CENTAUR R/B 1.9 22:44:53 43° WNW 22:45:16 45° NW 22:49:13 10° NNE
EO 1 Del DPAF 3.6 22:42:44 10° N 22:46:08 52° NW 22:46:08 52° NW
Cosmos 1674 3.6 22:43:46 10° N 22:47:25 41° ENE 22:48:03 38° ESE
USA 290 3.4 22:44:11 10° NNW 22:46:27 41° NNW 22:46:27 41° NNW
Cosmos 1378 Rocket 3.5 22:43:33 10° NNW 22:47:51 64° W 22:47:51 64° W
UNK 4.2 22:52:51 36° SE 22:54:34 60° ENE 22:59:10 10° N
Cosmos 407 Rocket 4.0 22:54:30 38° WSW 22:55:56 49° WNW 23:01:00 10° NNE
NOSS 3-4 (A) 3.7 22:49:08 10° NW 22:56:05 83° SW 23:03:53 10° SE
NOSS 3-4 (C) 3.8 22:49:13 10° NW 22:56:11 84° SW 23:03:59 10° SE
ADEOS II 3.5 22:51:44 10° NE 22:56:18 29° E 22:58:46 20° SE
Meteor 1-21 4.4 22:53:11 10° NNW 22:58:52 57° W 23:00:15 45° SW
Cosmos 1975 Rocket 3.7 22:56:18 10° N 23:00:35 51° ENE 23:02:02 35° SE
Cosmos 1844 Rocket 3.4 22:58:59 32° SSE 23:00:50 42° ESE 23:06:10 10° NE
Cosmos 676 Rocket 4.0 23:01:40 51° SSW 23:03:03 88° WNW 23:08:26 10° NNE
ATLAS 2AS CENTAUR R/B 3.1 22:57:57 10° NW 23:05:21 68° NE 23:12:09 10° SE
NOSS 3-3 (A) 4.5 23:02:53 27° WSW 23:06:04 55° NW 23:12:44 10° NE
NOSS 3-3 (C) 4.5 23:03:01 27° WSW 23:06:10 55° NW 23:12:50 10° NE
BREEZE-M DEB (TANK) 3.9 23:08:05 28° ENE 23:08:05 28° ENE 23:09:44 10° ENE
Cosmos 1707 3.2 23:04:34 10° NNW 23:07:54 46° WNW 23:07:54 46° WNW
Cosmos 1733 Rocket 4.3 23:09:45 28° W 23:10:20 29° WNW 23:14:15 10° N
Iridium 4 Rocket 3.8 23:06:19 10° N 23:12:08 69° W 23:14:10 41° SSW
Cosmos 1975 3.8 23:12:19 34° W 23:12:32 35° WNW 23:16:18 10° N
Cosmos 1908 Rocket 3.5 23:14:15 56° WSW 23:14:51 64° WNW 23:19:13 10° N
Cosmos 1805 4.0 23:16:40 38° SE 23:17:34 45° E 23:21:19 10° NNE
USA 234 3.9 23:18:04 32° SW 23:18:04 32° SW 23:23:45 10° WNW
SL-16 R/B 2.4 23:15:35 32° S 23:18:38 78° WSW 23:24:52 10° NNW
ADEOS Rocket 2.7 23:20:28 31° SSE 23:23:12 86° WSW 23:28:52 10° NNW
Meteor 2-20 4.4 23:18:17 10° N 23:24:29 86° E 23:28:10 26° S
Orbus 7S? 4.3 23:21:51 32° SW 23:25:21 71° SE 23:29:17 10° ENE
IDEFIX/ARIANE 42P 4.0 23:21:06 10° NNE 23:25:39 30° E 23:29:12 15° SSE
Cosmos 1626 2.2 23:23:07 10° N 23:26:49 70° ENE 23:27:39 49° SE
Helios 1B rocket 2.7 23:23:24 10° NNE 23:27:30 62° ESE 23:28:39 43° SSE
Cosmos 44 Rocket 3.4 23:23:03 10° NW 23:28:14 84° NE 23:33:14 10° SE
AQUA 3.9 23:24:45 10° NNE 23:29:32 72° ESE 23:31:20 38° S
FALCON 9 DEB 4.4 23:31:13 30° SE 23:31:13 30° SE 23:33:50 10° ENE
Cosmos 1741 Rocket 4.2 23:29:57 35° S 23:32:06 65° ESE 23:37:22 10° NNE
Cosmos 1400 Rocket 2.8 23:32:16 50° S 23:33:11 76° E 23:37:11 10° NNE
DNEPR-1 R/B 3.9 23:32:43 39° S 23:34:22 63° SE 23:38:51 10° NE
Cosmos 1727 Rocket 4.3 23:28:47 10° N 23:35:03 67° ENE 23:40:38 13° SSE
Cosmos 2263 Rocket 3.5 23:33:28 19° W 23:36:37 31° NW 23:41:40 10° NNE
Cosmos 2344 3.8 23:34:41 23° WSW 23:39:30 63° NW 23:47:36 10° NE
Cosmos 2218 Rocket 4.0 23:36:30 30° S 23:39:53 89° W 23:46:11 10° N
Cosmos 468 Rocket 4.2 23:37:22 10° NNW 23:42:26 48° WSW 23:44:07 35° SSW
Meteor 1-28 Rocket 3.3 23:45:16 29° SSE 23:47:03 71° ENE 23:50:45 10° N
Iridium 45 4.5 23:49:24 52° SSW 23:50:08 70° W 23:53:52 10° N
BREEZE-M DEB (TANK) 2.9 23:52:00 46° SE 23:52:00 46° SE 23:53:54 10° E
